TimeEDT,TemperatureF,Dew PointF,Humidity,Sea Level PressureIn,VisibilityMPH,Wind Direction,Wind SpeedMPH,Gust SpeedMPH,PrecipitationIn,Events,Conditions,WindDirDegrees,DateUTC
12:15 AM,48.2,46.4,93,29.87,0.8,ENE,15.0,25.3,N/A,,Overcast,70,2013-04-12 04:15:00
12:35 AM,48.2,44.6,87,29.87,1.0,ENE,17.3,25.3,N/A,,Overcast,60,2013-04-12 04:35:00
12:55 AM,48.2,46.4,93,29.87,1.0,ENE,12.7,24.2,N/A,,Overcast,60,2013-04-12 04:55:00
1:15 AM,48.2,44.6,87,29.87,1.0,NE,15.0,23.0,N/A,,Overcast,50,2013-04-12 05:15:00
1:35 AM,48.2,46.4,93,29.87,0.8,ENE,15.0,19.6,N/A,,Overcast,60,2013-04-12 05:35:00
1:55 AM,48.2,46.4,93,29.87,0.8,NE,17.3,23.0,N/A,,Overcast,50,2013-04-12 05:55:00
2:15 AM,48.2,46.4,93,29.86,1.0,NE,15.0,20.7,N/A,,Overcast,50,2013-04-12 06:15:00
2:35 AM,48.2,46.4,93,29.85,1.0,ENE,12.7,20.7,N/A,,Overcast,60,2013-04-12 06:35:00
2:55 AM,48.2,46.4,93,29.85,1.0,ENE,13.8,21.9,N/A,,Overcast,60,2013-04-12 06:55:00
3:15 AM,48.2,46.4,93,29.85,1.0,ENE,15.0,19.6,N/A,,Overcast,60,2013-04-12 07:15:00
3:35 AM,48.2,44.6,87,29.84,1.0,NE,16.1,20.7,N/A,,Overcast,50,2013-04-12 07:35:00
3:55 AM,48.2,46.4,93,29.83,1.0,NE,12.7,-,N/A,,Overcast,50,2013-04-12 07:55:00
4:15 AM,48.2,46.4,93,29.82,1.0,NE,12.7,23.0,N/A,,Overcast,50,2013-04-12 08:15:00
4:35 AM,48.2,46.4,93,29.82,1.0,ENE,12.7,20.7,N/A,,Overcast,60,2013-04-12 08:35:00
4:55 AM,48.2,46.4,93,29.81,1.0,ENE,13.8,20.7,N/A,,Overcast,60,2013-04-12 08:55:00
5:15 AM,48.2,46.4,93,29.80,1.0,ENE,15.0,21.9,N/A,,Overcast,60,2013-04-12 09:15:00
5:35 AM,48.2,46.4,93,29.80,1.0,ENE,12.7,18.4,N/A,,Overcast,60,2013-04-12 09:35:00
5:55 AM,48.2,46.4,93,29.79,0.8,ENE,11.5,-,N/A,,Overcast,70,2013-04-12 09:55:00
6:15 AM,48.2,46.4,93,29.80,0.8,East,10.4,-,N/A,,Overcast,80,2013-04-12 10:15:00
6:35 AM,48.2,46.4,93,29.78,0.8,ENE,12.7,-,N/A,,Overcast,70,2013-04-12 10:35:00
6:55 AM,50.0,48.2,94,29.79,0.2,East,8.1,-,N/A,,Overcast,80,2013-04-12 10:55:00
7:15 AM,50.0,48.2,94,29.78,0.2,ENE,11.5,-,N/A,,Overcast,70,2013-04-12 11:15:00
7:35 AM,50.0,48.2,94,29.78,0.2,ENE,12.7,-,N/A,,Overcast,70,2013-04-12 11:35:00
7:55 AM,51.8,48.2,88,29.78,0.2,ESE,5.8,-,N/A,,Overcast,110,2013-04-12 11:55:00
8:15 AM,51.8,48.2,88,29.77,0.2,East,8.1,-,N/A,,Overcast,100,2013-04-12 12:15:00
8:35 AM,53.6,51.8,94,29.78,0.2,SE,11.5,16.1,N/A,,Overcast,130,2013-04-12 12:35:00
8:55 AM,55.4,51.8,88,29.78,0.2,SSE,11.5,16.1,N/A,,Overcast,150,2013-04-12 12:55:00
9:15 AM,55.4,51.8,88,29.78,0.8,South,9.2,-,N/A,,Overcast,170,2013-04-12 13:15:00
9:35 AM,55.4,53.6,94,29.77,1.5,SSE,10.4,-,N/A,,Overcast,160,2013-04-12 13:35:00
9:55 AM,55.4,53.6,94,29.76,5.0,SSE,9.2,-,N/A,,Overcast,160,2013-04-12 13:55:00
10:15 AM,57.2,55.4,94,29.76,5.0,SSE,10.4,-,N/A,,Overcast,160,2013-04-12 14:15:00
10:55 AM,57.2,55.4,94,29.75,5.0,South,12.7,-,N/A,,Overcast,170,2013-04-12 14:55:00
11:15 AM,57.2,55.4,94,29.74,5.0,SSE,12.7,-,N/A,,Overcast,160,2013-04-12 15:15:00
11:35 AM,57.2,55.4,94,29.73,4.0,South,15.0,-,N/A,,Overcast,170,2013-04-12 15:35:00
11:55 AM,57.2,55.4,94,29.71,3.0,SSE,15.0,-,N/A,,Overcast,160,2013-04-12 15:55:00
12:15 PM,57.2,55.4,94,29.72,4.0,SSE,16.1,-,N/A,,Overcast,160,2013-04-12 16:15:00
12:35 PM,57.2,55.4,94,29.71,4.0,South,15.0,20.7,N/A,,Overcast,180,2013-04-12 16:35:00
12:55 PM,60.8,57.2,88,29.70,-9999.0,South,18.4,24.2,N/A,,Overcast,180,2013-04-12 16:55:00
1:15 PM,60.8,60.8,100,29.69,-9999.0,South,16.1,-,N/A,,Mostly Cloudy,190,2013-04-12 17:15:00
1:35 PM,62.6,60.8,94,29.68,-9999.0,South,13.8,20.7,0.01,,Unknown,180,2013-04-12 17:35:00
1:55 PM,66.2,62.6,88,29.67,-9999.0,South,12.7,19.6,0.01,,Unknown,180,2013-04-12 17:55:00
2:15 PM,66.2,60.8,83,29.66,-9999.0,South,18.4,23.0,N/A,,Clear,170,2013-04-12 18:15:00
2:35 PM,64.4,60.8,88,29.65,-9999.0,South,17.3,24.2,N/A,,Unknown,180,2013-04-12 18:35:00
2:55 PM,64.4,59.0,83,29.65,-9999.0,South,17.3,21.9,N/A,,Partly Cloudy,180,2013-04-12 18:55:00
3:15 PM,64.4,59.0,83,29.64,-9999.0,South,17.3,21.9,N/A,,Clear,180,2013-04-12 19:15:00
3:35 PM,66.2,60.8,83,29.64,-9999.0,South,15.0,24.2,N/A,,Clear,180,2013-04-12 19:35:00
3:55 PM,62.6,57.2,82,29.64,-9999.0,South,15.0,21.9,N/A,,Mostly Cloudy,170,2013-04-12 19:55:00
4:15 PM,60.8,55.4,82,29.63,-9999.0,South,11.5,19.6,N/A,,Overcast,180,2013-04-12 20:15:00
4:35 PM,59.0,55.4,88,29.63,9.0,South,13.8,-,N/A,,Overcast,180,2013-04-12 20:35:00
4:55 PM,60.8,57.2,88,29.62,-9999.0,South,13.8,-,N/A,,Mostly Cloudy,180,2013-04-12 20:55:00
5:15 PM,62.6,59.0,88,29.62,-9999.0,South,16.1,-,N/A,,Unknown,180,2013-04-12 21:15:00
5:35 PM,62.6,57.2,82,29.62,-9999.0,South,12.7,-,N/A,,Scattered Clouds,180,2013-04-12 21:35:00
5:55 PM,62.6,57.2,82,29.62,-9999.0,South,10.4,-,N/A,,Partly Cloudy,180,2013-04-12 21:55:00
6:15 PM,64.4,59.0,83,29.62,-9999.0,South,11.5,-,N/A,,Clear,190,2013-04-12 22:15:00
6:35 PM,60.8,55.4,82,29.63,-9999.0,South,5.8,-,N/A,,Mostly Cloudy,180,2013-04-12 22:35:00
6:55 PM,60.8,55.4,82,29.62,-9999.0,Calm,Calm,-,N/A,,Overcast,0,2013-04-12 22:55:00
7:15 PM,60.8,55.4,82,29.62,-9999.0,WNW,4.6,-,N/A,,Scattered Clouds,290,2013-04-12 23:15:00
7:35 PM,60.8,55.4,82,29.62,-9999.0,Calm,Calm,-,N/A,,Scattered Clouds,0,2013-04-12 23:35:00
7:55 PM,59.0,55.4,88,29.63,-9999.0,Calm,Calm,-,N/A,,Overcast,0,2013-04-12 23:55:00
8:15 PM,59.0,55.4,88,29.63,-9999.0,Calm,Calm,-,N/A,,Overcast,0,2013-04-13 00:15:00
8:35 PM,57.2,55.4,94,29.62,-9999.0,NE,8.1,-,N/A,,Overcast,40,2013-04-13 00:35:00
8:55 PM,57.2,53.6,88,29.64,5.0,NE,10.4,-,N/A,,Overcast,50,2013-04-13 00:55:00
9:15 PM,55.4,51.8,88,29.64,4.0,ENE,9.2,-,N/A,,Overcast,60,2013-04-13 01:15:00
9:35 PM,53.6,48.2,82,29.64,2.5,ENE,12.7,-,N/A,,Overcast,70,2013-04-13 01:35:00
9:55 PM,51.8,46.4,82,29.65,1.8,ENE,15.0,18.4,N/A,,Overcast,70,2013-04-13 01:55:00
10:15 PM,50.0,46.4,87,29.65,1.5,ENE,12.7,18.4,N/A,,Overcast,60,2013-04-13 02:15:00
10:35 PM,48.2,46.4,93,29.65,1.2,NE,13.8,-,N/A,,Overcast,50,2013-04-13 02:35:00
10:55 PM,48.2,46.4,93,29.67,1.2,North,10.4,-,N/A,,Overcast,360,2013-04-13 02:55:00
11:15 PM,50.0,46.4,87,29.68,1.5,North,8.1,-,N/A,,Overcast,360,2013-04-13 03:15:00
11:35 PM,48.2,46.4,93,29.68,2.5,North,10.4,18.4,N/A,,Overcast,360,2013-04-13 03:35:00
11:55 PM,48.2,44.6,87,29.69,5.0,North,13.8,21.9,N/A,,Overcast,360,2013-04-13 03:55:00